Rang BattleTag® Niveau Temps Terminé
1. Marglib 55 3min 20.733s. 23 août 2019 15:05:18
Pholusx 55 3min 20.733s. 23 août 2019 15:05:18
lasseholm 55 3min 20.733s. 23 août 2019 15:05:18
4. Pede 55 3min 24.649s. 24 août 2019 03:26:22
Iskander 55 3min 24.649s. 24 août 2019 03:26:22
Jay 55 3min 24.649s. 24 août 2019 03:26:22
7. thehunter 55 3min 25.800s. 23 août 2019 15:05:06
qwdfvb7 55 3min 25.800s. 23 août 2019 15:05:06
Professional 55 3min 25.800s. 23 août 2019 15:05:06
10. MidnightFox 55 3min 26.983s. 23 août 2019 19:35:03
Joysticker 55 3min 26.983s. 23 août 2019 19:35:03
Piemaker01 55 3min 26.983s. 23 août 2019 19:35:03
13. Iburg 55 3min 27.066s. 23 août 2019 15:04:58
Fakkik 55 3min 27.066s. 23 août 2019 15:04:58
TripFake 55 3min 27.066s. 23 août 2019 15:04:58
16. Nightwinger 55 3min 28.800s. 23 août 2019 15:05:07
OnkelFlip 55 3min 28.800s. 23 août 2019 15:05:07
Majus 55 3min 28.800s. 23 août 2019 15:05:07
19. Pohkis 55 3min 30.550s. 23 août 2019 15:23:17
Nikke 55 3min 30.550s. 23 août 2019 15:23:17
yka 55 3min 30.550s. 23 août 2019 15:23:17
22. Blade 55 3min 30.583s. 23 août 2019 15:06:13
Simppat 55 3min 30.583s. 23 août 2019 15:06:13
grovmicke1 55 3min 30.583s. 23 août 2019 15:06:13
25. DkPenPen 55 3min 30.816s. 23 août 2019 15:06:43
LocoJonny 55 3min 30.816s. 23 août 2019 15:06:43
Mihalenko 55 3min 30.816s. 23 août 2019 15:06:43
28. Juppi 55 3min 31.416s. 23 août 2019 15:13:24
Lharian 55 3min 31.416s. 23 août 2019 15:13:24
AttaQ 55 3min 31.416s. 23 août 2019 15:13:24
31. Eiko 55 3min 32.066s. 23 août 2019 15:05:21
Dumsomfan 55 3min 32.066s. 23 août 2019 15:05:21
Jord141 55 3min 32.066s. 23 août 2019 15:05:21
34. SoX 55 3min 32.133s. 23 août 2019 15:07:04
Seneca 55 3min 32.133s. 23 août 2019 15:07:04
Xertis 55 3min 32.133s. 23 août 2019 15:07:04
37. Marvinsan 55 3min 32.383s. 23 août 2019 15:41:19
Robinosch 55 3min 32.383s. 23 août 2019 15:41:19
BigBad 55 3min 32.383s. 23 août 2019 15:41:19
40. Uweundso16 55 3min 33.583s. 23 août 2019 15:05:19
RevengeLP 55 3min 33.583s. 23 août 2019 15:05:19
Vrugan 55 3min 33.583s. 23 août 2019 15:05:19
43. SzalonyMycio 55 3min 33.583s. 23 août 2019 15:18:06
Mateyrwa 55 3min 33.583s. 23 août 2019 15:18:06
Nakiiama 55 3min 33.583s. 23 août 2019 15:18:06
46. Venruchi 55 3min 34.150s. 23 août 2019 15:12:31
ElLasso 55 3min 34.150s. 23 août 2019 15:12:31
Gnaske 55 3min 34.150s. 23 août 2019 15:12:31
49. Orokas 55 3min 35.016s. 23 août 2019 15:05:30
Balu 55 3min 35.016s. 23 août 2019 15:05:30
Executeqtx 55 3min 35.016s. 23 août 2019 15:05:30
52. Coffey2Go 55 3min 37.100s. 23 août 2019 15:25:00
Pierre91 55 3min 37.100s. 23 août 2019 15:25:00
Bladewing 55 3min 37.100s. 23 août 2019 15:25:00
55. Mobby 55 3min 37.966s. 23 août 2019 15:19:22
Lorres 55 3min 37.966s. 23 août 2019 15:19:22
Outblast 55 3min 37.966s. 23 août 2019 15:19:22
58. Poctar 55 3min 38.166s. 23 août 2019 15:06:05
Kpoke 55 3min 38.166s. 23 août 2019 15:06:05
Roland007 55 3min 38.166s. 23 août 2019 15:06:05
61. alucard 55 3min 38.483s. 23 août 2019 15:06:51
theshadow 55 3min 38.483s. 23 août 2019 15:06:51
Bee 55 3min 38.483s. 23 août 2019 15:06:51
64. TmB 55 3min 38.533s. 23 août 2019 16:30:01
Anthey 55 3min 38.533s. 23 août 2019 16:30:01
backf1sch 55 3min 38.533s. 23 août 2019 16:30:01
67. Gaztak 55 3min 39.066s. 23 août 2019 18:46:59
Baldier 55 3min 39.066s. 23 août 2019 18:46:59
Neva 55 3min 39.066s. 23 août 2019 18:46:59
70. simon 55 3min 39.100s. 23 août 2019 21:27:20
Superkarin 55 3min 39.100s. 23 août 2019 21:27:20
thebo 55 3min 39.100s. 23 août 2019 21:27:20
73. isie123 55 3min 39.416s. 23 août 2019 15:09:37
Dawo 55 3min 39.416s. 23 août 2019 15:09:37
BlutOrange 55 3min 39.416s. 23 août 2019 15:09:37
76. Flashbirds 55 3min 40.083s. 23 août 2019 15:09:12
gregorio 55 3min 40.083s. 23 août 2019 15:09:12
Mamatix 55 3min 40.083s. 23 août 2019 15:09:12
79. Johabia 55 3min 40.683s. 23 août 2019 15:09:38
Frostort 55 3min 40.683s. 23 août 2019 15:09:38
Aranreth 55 3min 40.683s. 23 août 2019 15:09:38
82. Drummer0912 55 3min 40.816s. 23 août 2019 15:40:46
Jan 55 3min 40.816s. 23 août 2019 15:40:46
Kallisto 55 3min 40.816s. 23 août 2019 15:40:46
85. nanohan 55 3min 41.183s. 23 août 2019 15:06:21
britzlflitz 55 3min 41.183s. 23 août 2019 15:06:21
Grmigrim 55 3min 41.183s. 23 août 2019 15:06:21
88. Celvax 55 3min 41.650s. 23 août 2019 15:07:52
Fenix85 55 3min 41.650s. 23 août 2019 15:07:52
Eldacar 55 3min 41.650s. 23 août 2019 15:07:52
91. ConnorAllen 55 3min 41.966s. 23 août 2019 15:05:42
Afrojax 55 3min 41.966s. 23 août 2019 15:05:42
shamue55 55 3min 41.966s. 23 août 2019 15:05:42
94. Navill 55 3min 42.266s. 23 août 2019 15:05:43
Clemme 55 3min 42.266s. 23 août 2019 15:05:43
Martinmagi 55 3min 42.266s. 23 août 2019 15:05:43
97. ElDiablo 55 3min 42.366s. 23 août 2019 15:06:05
Celedra 55 3min 42.366s. 23 août 2019 15:06:05
Wakka 55 3min 42.366s. 23 août 2019 15:06:05
100. CrocC 55 3min 42.616s. 23 août 2019 15:17:25
Heidfogel 55 3min 42.616s. 23 août 2019 15:17:25
Reasta 55 3min 42.616s. 23 août 2019 15:17:25
103. Valkorion 55 3min 42.683s. 23 août 2019 17:39:43
jesuswashere 55 3min 42.683s. 23 août 2019 17:39:43
LegendMads 55 3min 42.683s. 23 août 2019 17:39:43
106. Darks4int 55 3min 42.716s. 23 août 2019 15:07:04
Satel 55 3min 42.716s. 23 août 2019 15:07:04
Stokka91 55 3min 42.716s. 23 août 2019 15:07:04
109. Marco15211 55 3min 43.366s. 24 août 2019 14:28:36
Mosus 55 3min 43.366s. 24 août 2019 14:28:36
Äffchen 55 3min 43.366s. 24 août 2019 14:28:36
112. hugoline2012 55 3min 43.433s. 23 août 2019 15:05:25
MrSatan 55 3min 43.433s. 23 août 2019 15:05:25
rAdgOn 55 3min 43.433s. 23 août 2019 15:05:25
115. Fruno 55 3min 43.483s. 23 août 2019 15:11:58
Cuba 55 3min 43.483s. 23 août 2019 15:11:58
CHHorny 55 3min 43.483s. 23 août 2019 15:11:58
118. Allan 55 3min 43.733s. 23 août 2019 15:05:49
Echo 55 3min 43.733s. 23 août 2019 15:05:49
Darkdoom 55 3min 43.733s. 23 août 2019 15:05:49
121. rhythmic 55 3min 44.016s. 23 août 2019 15:11:06
Manski 55 3min 44.016s. 23 août 2019 15:11:06
namereported 55 3min 44.016s. 23 août 2019 15:11:06
124. Ghy1head 55 3min 44.216s. 23 août 2019 15:05:42
Razer1911 55 3min 44.216s. 23 août 2019 15:05:42
ColdasIce 55 3min 44.216s. 23 août 2019 15:05:42
127. s4uron 55 3min 44.333s. 23 août 2019 16:49:01
Alchemyst 55 3min 44.333s. 23 août 2019 16:49:01
Luckynumber 55 3min 44.333s. 23 août 2019 16:49:01
130. Adestria 55 3min 44.350s. 23 août 2019 16:03:22
Stormimpact 55 3min 44.350s. 23 août 2019 16:03:22
Endal 55 3min 44.350s. 23 août 2019 16:03:22
133. iEvansRed 55 3min 44.416s. 24 août 2019 09:44:18
Huachoman 55 3min 44.416s. 24 août 2019 09:44:18
KsandeR 55 3min 44.416s. 24 août 2019 09:44:18
136. Darthcisco 55 3min 44.533s. 23 août 2019 15:06:26
Dinér 55 3min 44.533s. 23 août 2019 15:06:26
Elmoi 55 3min 44.533s. 23 août 2019 15:06:26
139. JDTheScorpio 55 3min 44.633s. 23 août 2019 15:05:19
Raxo 55 3min 44.633s. 23 août 2019 15:05:19
Fennexis 55 3min 44.633s. 23 août 2019 15:05:19
142. Skye 55 3min 44.933s. 23 août 2019 15:05:34
SuperStoffen 55 3min 44.933s. 23 août 2019 15:05:34
GrumpyKitten 55 3min 44.933s. 23 août 2019 15:05:34
145. OracleDBA 55 3min 45.016s. 23 août 2019 15:05:12
uded222 55 3min 45.016s. 23 août 2019 15:05:12
FlySlap 55 3min 45.016s. 23 août 2019 15:05:12
148. IVAR 55 3min 45.316s. 23 août 2019 15:06:35
Pansarbjorn 55 3min 45.316s. 23 août 2019 15:06:35
ShinyPants 55 3min 45.316s. 23 août 2019 15:06:35
151. tam831 55 3min 45.533s. 23 août 2019 15:05:46
MrCandy 55 3min 45.533s. 23 août 2019 15:05:46
tnorby 55 3min 45.533s. 23 août 2019 15:05:46
154. Thrillaxx 55 3min 45.600s. 23 août 2019 15:55:10
Testertroll 55 3min 45.600s. 23 août 2019 15:55:10
Exestus 55 3min 45.600s. 23 août 2019 15:55:10
157. PlsMercyRez 55 3min 45.900s. 23 août 2019 15:05:54
Dino 55 3min 45.900s. 23 août 2019 15:05:54
darkvador 55 3min 45.900s. 23 août 2019 15:05:54
160. IziPeasyyPL 55 3min 46.050s. 23 août 2019 15:06:01
powerPL 55 3min 46.050s. 23 août 2019 15:06:01
markoniPL 55 3min 46.050s. 23 août 2019 15:06:01
163. Anderberg 55 3min 46.366s. 23 août 2019 15:05:36
GamingLotus 55 3min 46.366s. 23 août 2019 15:05:36
HokusPokus 55 3min 46.366s. 23 août 2019 15:05:36
166. Yooi 55 3min 46.566s. 23 août 2019 15:06:12
Beleoron 55 3min 46.566s. 23 août 2019 15:06:12
Drib 55 3min 46.566s. 23 août 2019 15:06:12
169. Doax 55 3min 46.633s. 23 août 2019 15:16:44
Kairi 55 3min 46.633s. 23 août 2019 15:16:44
Shinobi82 55 3min 46.633s. 23 août 2019 15:16:44
172. Humm3L 55 3min 46.916s. 23 août 2019 17:33:04
Pazuhl 55 3min 46.916s. 23 août 2019 17:33:04
Slaschmocka 55 3min 46.916s. 23 août 2019 17:33:04
175. Kyjuubz 55 3min 47.033s. 23 août 2019 15:06:09
Hasi 55 3min 47.033s. 23 août 2019 15:06:09
IceWave 55 3min 47.033s. 23 août 2019 15:06:09
178. Bamsebjörnen 55 3min 47.100s. 23 août 2019 15:05:13
Virtanen 55 3min 47.100s. 23 août 2019 15:05:13
Coldwire 55 3min 47.100s. 23 août 2019 15:05:13
181. Happy 55 3min 47.100s. 23 août 2019 15:05:16
GodImFrozen 55 3min 47.100s. 23 août 2019 15:05:16
Fewcial 55 3min 47.100s. 23 août 2019 15:05:16
184. MrBot 55 3min 47.100s. 23 août 2019 19:09:36
geo 55 3min 47.100s. 23 août 2019 19:09:36
Lansero 55 3min 47.100s. 23 août 2019 19:09:36
187. Radeazer 55 3min 47.433s. 23 août 2019 15:06:13
BossDerBosse 55 3min 47.433s. 23 août 2019 15:06:13
Syntex 55 3min 47.433s. 23 août 2019 15:06:13
190. Rement535 55 3min 47.883s. 23 août 2019 15:05:36
Pannan 55 3min 47.883s. 23 août 2019 15:05:36
Pistolgunnar 55 3min 47.883s. 23 août 2019 15:05:36
193. Vaerah 55 3min 47.916s. 23 août 2019 15:18:21
Proxidark 55 3min 47.916s. 23 août 2019 15:18:21
CrocK 55 3min 47.916s. 23 août 2019 15:18:21
196. Schlüter 55 3min 47.983s. 23 août 2019 15:05:24
Nalzuma 55 3min 47.983s. 23 août 2019 15:05:24
Calass 55 3min 47.983s. 23 août 2019 15:05:24
199. Samael 55 3min 48.066s. 23 août 2019 15:06:19
Merlin 55 3min 48.066s. 23 août 2019 15:06:19
warlok 55 3min 48.066s. 23 août 2019 15:06:19
202. PyttyLink 55 3min 48.216s. 23 août 2019 15:06:06
Melfice 55 3min 48.216s. 23 août 2019 15:06:06
Roccat 55 3min 48.216s. 23 août 2019 15:06:06
205. skydom12 55 3min 48.283s. 23 août 2019 15:07:25
Jeans 55 3min 48.283s. 23 août 2019 15:07:25
Takumotono 55 3min 48.283s. 23 août 2019 15:07:25
208. Ðecrø 55 3min 48.533s. 23 août 2019 15:05:37
ExcavatoR 55 3min 48.533s. 23 août 2019 15:05:37
XXXHaaaseXXX 55 3min 48.533s. 23 août 2019 15:05:37
211. Andom 55 3min 48.999s. 23 août 2019 22:31:00
doubt 55 3min 48.999s. 23 août 2019 22:31:00
Gronkh 55 3min 48.999s. 23 août 2019 22:31:00
214. MrFancyPants 55 3min 49.083s. 23 août 2019 15:06:33
Hansoon 55 3min 49.083s. 23 août 2019 15:06:33
Fox 55 3min 49.083s. 23 août 2019 15:06:33
217. Kuboble 55 3min 49.500s. 23 août 2019 15:05:31
madsante 55 3min 49.500s. 23 août 2019 15:05:31
Lyxzen 55 3min 49.500s. 23 août 2019 15:05:31
220. Wyrdo 55 3min 49.816s. 23 août 2019 15:18:38
Brolumbus 55 3min 49.816s. 23 août 2019 15:18:38
Brender 55 3min 49.816s. 23 août 2019 15:18:38
223. Fastye 55 3min 49.816s. 23 août 2019 22:40:32
salami 55 3min 49.816s. 23 août 2019 22:40:32
Drøwnëd 55 3min 49.816s. 23 août 2019 22:40:32
226. Neo 55 3min 50.150s. 24 août 2019 09:21:47
Jin600 55 3min 50.150s. 24 août 2019 09:21:47
Domi 55 3min 50.150s. 24 août 2019 09:21:47
229. Боец 55 3min 50.233s. 23 août 2019 15:09:09
Annetsss 55 3min 50.233s. 23 août 2019 15:09:09
bzz 55 3min 50.233s. 23 août 2019 15:09:09
232. Andlux 55 3min 50.300s. 24 août 2019 09:12:57
Devil 55 3min 50.300s. 24 août 2019 09:12:57
xTide 55 3min 50.300s. 24 août 2019 09:12:57
235. Cinecraft 55 3min 50.316s. 23 août 2019 15:06:39
Layn 55 3min 50.316s. 23 août 2019 15:06:39
BrainBug 55 3min 50.316s. 23 août 2019 15:06:39
238. Draven 55 3min 50.383s. 23 août 2019 15:05:49
le3el 55 3min 50.383s. 23 août 2019 15:05:49
Nerotox 55 3min 50.383s. 23 août 2019 15:05:49
241. SuicidTomate 55 3min 50.600s. 23 août 2019 15:05:39
Inflar 55 3min 50.600s. 23 août 2019 15:05:39
xHefty 55 3min 50.600s. 23 août 2019 15:05:39
244. enrique 55 3min 50.783s. 23 août 2019 15:05:20
LEDBro 55 3min 50.783s. 23 août 2019 15:05:20
Narfi 55 3min 50.783s. 23 août 2019 15:05:20
247. ClownHunter 55 3min 50.866s. 23 août 2019 15:06:44
Rankhole 55 3min 50.866s. 23 août 2019 15:06:44
Octa 55 3min 50.866s. 23 août 2019 15:06:44
250. Thin 55 3min 50.966s. 23 août 2019 15:05:33
LordofWorld 55 3min 50.966s. 23 août 2019 15:05:33
Abdelhamid 55 3min 50.966s. 23 août 2019 15:05:33
253. Lingonsnaps 55 3min 51.416s. 23 août 2019 15:05:54
FeFeMcQ 55 3min 51.416s. 23 août 2019 15:05:54
SilverTajpen 55 3min 51.416s. 23 août 2019 15:05:54
256. ElPuYi5 55 3min 51.600s. 23 août 2019 15:08:43
Benla 55 3min 51.600s. 23 août 2019 15:08:43
SeñorDebora 55 3min 51.600s. 23 août 2019 15:08:43
259. Goostac 55 3min 51.633s. 23 août 2019 15:05:40
kswift 55 3min 51.633s. 23 août 2019 15:05:40
DojDoj 55 3min 51.633s. 23 août 2019 15:05:40
262. Heigou 55 3min 51.683s. 23 août 2019 19:03:40
f1rebl4der 55 3min 51.683s. 23 août 2019 19:03:40
WomboKombo 55 3min 51.683s. 23 août 2019 19:03:40
265. Metzern 55 3min 51.733s. 23 août 2019 20:33:45
Angelbäck 55 3min 51.733s. 23 août 2019 20:33:45
Flashfart 55 3min 51.733s. 23 août 2019 20:33:45
268. DzikiMnich 55 3min 51.800s. 23 août 2019 15:14:00
Catiana 55 3min 51.800s. 23 août 2019 15:14:00
Ninja 55 3min 51.800s. 23 août 2019 15:14:00
271. JackyThaï 55 3min 51.816s. 23 août 2019 15:07:49
Vendetta 55 3min 51.816s. 23 août 2019 15:07:49
Skyred 55 3min 51.816s. 23 août 2019 15:07:49
274. Lessnau 55 3min 51.983s. 23 août 2019 15:07:56
robciog 55 3min 51.983s. 23 août 2019 15:07:56
Azeroth 55 3min 51.983s. 23 août 2019 15:07:56
277. Derda 55 3min 52.250s. 23 août 2019 15:12:14
Ayumii 55 3min 52.250s. 23 août 2019 15:12:14
VĿONE 55 3min 52.250s. 23 août 2019 15:12:14
280. Atomik 55 3min 52.300s. 23 août 2019 18:16:01
Vorteas 55 3min 52.300s. 23 août 2019 18:16:01
Ryoga 55 3min 52.300s. 23 août 2019 18:16:01
283. EddiBeGood 55 3min 52.450s. 23 août 2019 15:05:32
Tulkaz 55 3min 52.450s. 23 août 2019 15:05:32
RoflCopta 55 3min 52.450s. 23 août 2019 15:05:32
286. Weedie 55 3min 52.600s. 23 août 2019 15:09:30
Lyniks 55 3min 52.600s. 23 août 2019 15:09:30
Weeaboo69 55 3min 52.600s. 23 août 2019 15:09:30
289. LionelRoland 55 3min 52.600s. 23 août 2019 15:14:04
dezienn 55 3min 52.600s. 23 août 2019 15:14:04
zero 55 3min 52.600s. 23 août 2019 15:14:04
292. DeadlyS 55 3min 52.633s. 23 août 2019 15:05:55
Joshikinq 55 3min 52.633s. 23 août 2019 15:05:55
Daniel 55 3min 52.633s. 23 août 2019 15:05:55
295. Many 55 3min 52.683s. 23 août 2019 19:50:47
RaXeRT 55 3min 52.683s. 23 août 2019 19:50:47
Atemi 55 3min 52.683s. 23 août 2019 19:50:47
298. GodSins 55 3min 52.700s. 23 août 2019 15:07:54
wingit 55 3min 52.700s. 23 août 2019 15:07:54
JANEE 55 3min 52.700s. 23 août 2019 15:07:54
301. Lenix 55 3min 52.766s. 23 août 2019 17:21:24
Ðøwn 55 3min 52.766s. 23 août 2019 17:21:24
Ðæsy 55 3min 52.766s. 23 août 2019 17:21:24
304. DuBx 55 3min 52.916s. 23 août 2019 15:06:21
Struppi 55 3min 52.916s. 23 août 2019 15:06:21
Kimbo 55 3min 52.916s. 23 août 2019 15:06:21
307. MrSchulze 55 3min 53.366s. 23 août 2019 15:06:08
BigSmilex3 55 3min 53.366s. 23 août 2019 15:06:08
Nightmare 55 3min 53.366s. 23 août 2019 15:06:08
310. Remiehneppo 55 3min 53.450s. 24 août 2019 14:30:20
MuffinProof 55 3min 53.450s. 24 août 2019 14:30:20
Neme5i5 55 3min 53.450s. 24 août 2019 14:30:20
313. A1rwave 55 3min 53.466s. 23 août 2019 15:07:32
WarDestroyer 55 3min 53.466s. 23 août 2019 15:07:32
Psyclone 55 3min 53.466s. 23 août 2019 15:07:32
316. Jareth 55 3min 53.533s. 23 août 2019 21:24:14
branbausil88 55 3min 53.533s. 23 août 2019 21:24:14
Guenter 55 3min 53.533s. 23 août 2019 21:24:14
319. Vinkel 55 3min 53.749s. 23 août 2019 15:05:56
Yarker 55 3min 53.749s. 23 août 2019 15:05:56
Tjackis 55 3min 53.749s. 23 août 2019 15:05:56
322. Lord 55 3min 53.916s. 23 août 2019 15:07:54
Edarion 55 3min 53.916s. 23 août 2019 15:07:54
NobodyForLif 55 3min 53.916s. 23 août 2019 15:07:54
325. Krasipeace 55 3min 53.933s. 23 août 2019 21:12:33
Lichie 55 3min 53.933s. 23 août 2019 21:12:33
Ubiquitous 55 3min 53.933s. 23 août 2019 21:12:33
328. Frezken 55 3min 54.083s. 23 août 2019 19:44:01
Monkey328 55 3min 54.083s. 23 août 2019 19:44:01
Buranbox 55 3min 54.083s. 23 août 2019 19:44:01
331. Notsuri 55 3min 54.316s. 23 août 2019 15:05:42
Anebriand 55 3min 54.316s. 23 août 2019 15:05:42
kita 55 3min 54.316s. 23 août 2019 15:05:42
334. PHumik 55 3min 54.466s. 23 août 2019 15:05:28
oskarw 55 3min 54.466s. 23 août 2019 15:05:28
BloodHunter 55 3min 54.466s. 23 août 2019 15:05:28
337. Mons 55 3min 54.566s. 23 août 2019 15:06:30
Koertsen 55 3min 54.566s. 23 août 2019 15:06:30
MikeSpike 55 3min 54.566s. 23 août 2019 15:06:30
340. LegoBibi 55 3min 54.600s. 23 août 2019 15:14:45
Shana 55 3min 54.600s. 23 août 2019 15:14:45
Yunyun 55 3min 54.600s. 23 août 2019 15:14:45
343. Flox 55 3min 54.883s. 23 août 2019 21:25:53
Mransby 55 3min 54.883s. 23 août 2019 21:25:53
Nome 55 3min 54.883s. 23 août 2019 21:25:53
346. Friik 55 3min 55.316s. 23 août 2019 15:05:51
PoWeL 55 3min 55.316s. 23 août 2019 15:05:51
smexor 55 3min 55.316s. 23 août 2019 15:05:51
349. Fafi 55 3min 55.350s. 24 août 2019 14:51:59
Saratos 55 3min 55.350s. 24 août 2019 14:51:59
Gilgamesh 55 3min 55.350s. 24 août 2019 14:51:59
352. zwinny123 55 3min 55.383s. 23 août 2019 15:06:15
Shaman 55 3min 55.383s. 23 août 2019 15:06:15
misiekr99 55 3min 55.383s. 23 août 2019 15:06:15
355. Espina87 55 3min 55.433s. 23 août 2019 19:16:14
xFrameZ 55 3min 55.433s. 23 août 2019 19:16:14
TurokTemplar 55 3min 55.433s. 23 août 2019 19:16:14
358. Krystian 55 3min 55.500s. 23 août 2019 15:05:13
Bossaruu 55 3min 55.500s. 23 août 2019 15:05:13
Blazeur 55 3min 55.500s. 23 août 2019 15:05:13
361. Mightox 55 3min 55.733s. 23 août 2019 15:08:02
Nesen89 55 3min 55.733s. 23 août 2019 15:08:02
Butterfly 55 3min 55.733s. 23 août 2019 15:08:02
364. Tenryuu 55 3min 55.750s. 23 août 2019 15:05:45
Klasycznie 55 3min 55.750s. 23 août 2019 15:05:45
Deviltomas 55 3min 55.750s. 23 août 2019 15:05:45
367. HaakonK 55 3min 56.166s. 23 août 2019 15:07:11
TheUnseen 55 3min 56.166s. 23 août 2019 15:07:11
Hexotrail 55 3min 56.166s. 23 août 2019 15:07:11
370. Gladi 55 3min 56.200s. 23 août 2019 15:05:35
mATSURIKA 55 3min 56.200s. 23 août 2019 15:05:35
Reckham 55 3min 56.200s. 23 août 2019 15:05:35
373. Stafioman 55 3min 56.383s. 24 août 2019 00:38:37
BrO 55 3min 56.383s. 24 août 2019 00:38:37
PlayOnly4Fun 55 3min 56.383s. 24 août 2019 00:38:37
376. Baltrass 55 3min 56.399s. 23 août 2019 15:05:42
Mythos 55 3min 56.399s. 23 août 2019 15:05:42
Soly 55 3min 56.399s. 23 août 2019 15:05:42
379. plum 55 3min 56.600s. 23 août 2019 15:05:50
BouBouNe 55 3min 56.600s. 23 août 2019 15:05:50
AlexJL 55 3min 56.600s. 23 août 2019 15:05:50
382. Kåe 55 3min 56.750s. 23 août 2019 15:40:45
Kalleper2 55 3min 56.750s. 23 août 2019 15:40:45
GoatMaster 55 3min 56.750s. 23 août 2019 15:40:45
385. Trombjörg 55 3min 56.966s. 23 août 2019 17:15:41
Invis 55 3min 56.966s. 23 août 2019 17:15:41
HappyOrange 55 3min 56.966s. 23 août 2019 17:15:41
388. Bandut 55 3min 57.150s. 23 août 2019 19:40:51
Darphious 55 3min 57.150s. 23 août 2019 19:40:51
Justluck 55 3min 57.150s. 23 août 2019 19:40:51
391. Kozaky 55 3min 57.250s. 23 août 2019 15:11:01
Patrick 55 3min 57.250s. 23 août 2019 15:11:01
Hunter 55 3min 57.250s. 23 août 2019 15:11:01
394. SonofSAM 55 3min 57.366s. 23 août 2019 15:20:04
Vegeta 55 3min 57.366s. 23 août 2019 15:20:04
Smoker 55 3min 57.366s. 23 août 2019 15:20:04
397. funkflix 55 3min 57.366s. 23 août 2019 18:34:45
uNna 55 3min 57.366s. 23 août 2019 18:34:45
IBOOBI 55 3min 57.366s. 23 août 2019 18:34:45
400. Firemirro 55 3min 57.483s. 23 août 2019 15:06:52
Timinielsen 55 3min 57.483s. 23 août 2019 15:06:52
TardedToast 55 3min 57.483s. 23 août 2019 15:06:52
403. Mikk 55 3min 57.900s. 23 août 2019 15:07:43
Python 55 3min 57.900s. 23 août 2019 15:07:43
Deansy 55 3min 57.900s. 23 août 2019 15:07:43
406. Nesi 55 3min 57.916s. 23 août 2019 21:22:23
Engeki 55 3min 57.916s. 23 août 2019 21:22:23
Rayes 55 3min 57.916s. 23 août 2019 21:22:23
409. Scienic 55 3min 58.450s. 23 août 2019 15:14:13
Lindri 55 3min 58.450s. 23 août 2019 15:14:13
Flashnizer 55 3min 58.450s. 23 août 2019 15:14:13
412. Fjarki 55 3min 58.666s. 23 août 2019 15:09:24
egillth 55 3min 58.666s. 23 août 2019 15:09:24
Gummzi 55 3min 58.666s. 23 août 2019 15:09:24
415. mruczek15442 55 3min 58.700s. 23 août 2019 18:14:02
Ishi 55 3min 58.700s. 23 août 2019 18:14:02
Atrox 55 3min 58.700s. 23 août 2019 18:14:02
418. BrHaftigt 55 3min 58.816s. 23 août 2019 19:16:03
madmuis 55 3min 58.816s. 23 août 2019 19:16:03
joske666 55 3min 58.816s. 23 août 2019 19:16:03
421. Breaker 55 3min 58.866s. 23 août 2019 21:20:09
Exillium 55 3min 58.866s. 23 août 2019 21:20:09
Zaris 55 3min 58.866s. 23 août 2019 21:20:09
424. Mätti 55 3min 59.083s. 23 août 2019 15:33:59
wernercus 55 3min 59.083s. 23 août 2019 15:33:59
Honig 55 3min 59.083s. 23 août 2019 15:33:59
427. CaSKiFo 55 3min 59.183s. 23 août 2019 15:05:58
TaoPlyPly 55 3min 59.183s. 23 août 2019 15:05:58
gtTashi 55 3min 59.183s. 23 août 2019 15:05:58
430. Laerg 55 3min 59.283s. 23 août 2019 20:43:39
JAXAS 55 3min 59.283s. 23 août 2019 20:43:39
Vynuoge 55 3min 59.283s. 23 août 2019 20:43:39
433. Predator 55 3min 59.366s. 23 août 2019 15:05:38
Kopp 55 3min 59.366s. 23 août 2019 15:05:38
TheBeatlesJL 55 3min 59.366s. 23 août 2019 15:05:38
436. Emolex 55 3min 59.416s. 23 août 2019 15:05:55
Psyche 55 3min 59.416s. 23 août 2019 15:05:55
Gumikacsa 55 3min 59.416s. 23 août 2019 15:05:55
439. Maxpepon 55 3min 59.483s. 23 août 2019 15:27:24
Fenrir 55 3min 59.483s. 23 août 2019 15:27:24
itchy 55 3min 59.483s. 23 août 2019 15:27:24
442. TheVengeful 55 3min 59.516s. 23 août 2019 15:07:01
fekabacsi 55 3min 59.516s. 23 août 2019 15:07:01
Phoenix 55 3min 59.516s. 23 août 2019 15:07:01
445. ItsMatze 55 3min 59.649s. 23 août 2019 15:05:26
MBEnd 55 3min 59.649s. 23 août 2019 15:05:26
Murphy 55 3min 59.649s. 23 août 2019 15:05:26
448. Shawn07 55 3min 59.783s. 23 août 2019 20:18:54
Slayer 55 3min 59.783s. 23 août 2019 20:18:54
JBILouis 55 3min 59.783s. 23 août 2019 20:18:54
451. Trainblub 55 3min 59.833s. 23 août 2019 17:31:57
Ati 55 3min 59.833s. 23 août 2019 17:31:57
Floppy 55 3min 59.833s. 23 août 2019 17:31:57
454. NedStar 55 3min 59.883s. 23 août 2019 16:13:44
Raz3mus 55 3min 59.883s. 23 août 2019 16:13:44
Fastline 55 3min 59.883s. 23 août 2019 16:13:44
457. DrStrange 55 3min 59.899s. 23 août 2019 15:08:32
KHR 55 3min 59.899s. 23 août 2019 15:08:32
Dunkelbock 55 3min 59.899s. 23 août 2019 15:08:32
460. chipz0r 55 3min 59.900s. 23 août 2019 21:05:29
Armanic 55 3min 59.900s. 23 août 2019 21:05:29
stuffztah 55 3min 59.900s. 23 août 2019 21:05:29
463. Lucas 55 4min 0.150s. 23 août 2019 15:08:49
Aizubus 55 4min 0.150s. 23 août 2019 15:08:49
Nakiro 55 4min 0.150s. 23 août 2019 15:08:49
466. Elvenghost 55 4min 0.299s. 23 août 2019 15:09:02
CryFy 55 4min 0.299s. 23 août 2019 15:09:02
Xenorian 55 4min 0.299s. 23 août 2019 15:09:02
469. Ziriado 55 4min 0.300s. 23 août 2019 15:06:37
Husmusen 55 4min 0.300s. 23 août 2019 15:06:37
Keplars 55 4min 0.300s. 23 août 2019 15:06:37
472. ElixirEight 55 4min 0.366s. 23 août 2019 15:19:49
Asoldier 55 4min 0.366s. 23 août 2019 15:19:49
Acentiger 55 4min 0.366s. 23 août 2019 15:19:49
475. Daff 55 4min 0.516s. 23 août 2019 15:09:43
Frikky 55 4min 0.516s. 23 août 2019 15:09:43
Papitchaow 55 4min 0.516s. 23 août 2019 15:09:43
478. stuka 55 4min 0.566s. 23 août 2019 15:06:28
Enma 55 4min 0.566s. 23 août 2019 15:06:28
phantom 55 4min 0.566s. 23 août 2019 15:06:28
481. Shujaku 55 4min 0.566s. 23 août 2019 15:18:03
Tayoo 55 4min 0.566s. 23 août 2019 15:18:03
kaspi 55 4min 0.566s. 23 août 2019 15:18:03
484. Muusdude 55 4min 0.683s. 23 août 2019 16:47:47
LordofDawn 55 4min 0.683s. 23 août 2019 16:47:47
Moggernogga 55 4min 0.683s. 23 août 2019 16:47:47
487. exia 55 4min 0.966s. 23 août 2019 15:05:28
Mudar 55 4min 0.966s. 23 août 2019 15:05:28
moegeL 55 4min 0.966s. 23 août 2019 15:05:28
490. Murderfox 55 4min 0.966s. 23 août 2019 22:58:36
Lucy 55 4min 0.966s. 23 août 2019 22:58:36
TommyScH 55 4min 0.966s. 23 août 2019 22:58:36
493. CroDanZ 55 4min 0.983s. 23 août 2019 15:06:46
BierKrugal 55 4min 0.983s. 23 août 2019 15:06:46
Ultraworg 55 4min 0.983s. 23 août 2019 15:06:46
496. MultiVissy 55 4min 1.266s. 23 août 2019 15:09:49
esoteric13 55 4min 1.266s. 23 août 2019 15:09:49
thounimak 55 4min 1.266s. 23 août 2019 15:09:49
499. Orinia 55 4min 1.333s. 23 août 2019 17:08:30
ToiletArtist 55 4min 1.333s. 23 août 2019 17:08:30
Robsen 55 4min 1.333s. 23 août 2019 17:08:30
502. CHaQue 55 4min 1.500s. 23 août 2019 15:11:01
noHoc 55 4min 1.500s. 23 août 2019 15:11:01
Mafter 55 4min 1.500s. 23 août 2019 15:11:01
505. zumpi 55 4min 1.550s. 23 août 2019 15:10:20
Considerz 55 4min 1.550s. 23 août 2019 15:10:20
Hecki231 55 4min 1.550s. 23 août 2019 15:10:20
508. Tyneamite 55 4min 1.683s. 23 août 2019 18:11:54
Denver 55 4min 1.683s. 23 août 2019 18:11:54
Finrod 55 4min 1.683s. 23 août 2019 18:11:54
511. Blained 55 4min 1.766s. 23 août 2019 15:08:48
Synapps 55 4min 1.766s. 23 août 2019 15:08:48
RiseAboveYou 55 4min 1.766s. 23 août 2019 15:08:48
514. Mannou 55 4min 1.816s. 23 août 2019 16:37:12
Supreme 55 4min 1.816s. 23 août 2019 16:37:12
Huny 55 4min 1.816s. 23 août 2019 16:37:12
517. brnz 55 4min 1.833s. 23 août 2019 15:05:24
Drisn 55 4min 1.833s. 23 août 2019 15:05:24
prOpaX 55 4min 1.833s. 23 août 2019 15:05:24
520. JokerRoxas 55 4min 2.066s. 23 août 2019 15:07:39
AwkwardTaube 55 4min 2.066s. 23 août 2019 15:07:39
Ilidaran 55 4min 2.066s. 23 août 2019 15:07:39
523. H4cke 55 4min 2.150s. 23 août 2019 18:36:33
Alinoe 55 4min 2.150s. 23 août 2019 18:36:33
ZOHAN1993 55 4min 2.150s. 23 août 2019 18:36:33
526. Tengereken 55 4min 2.216s. 23 août 2019 15:06:05
Snickarn 55 4min 2.216s. 23 août 2019 15:06:05
Tampa 55 4min 2.216s. 23 août 2019 15:06:05
529. Girty 55 4min 2.216s. 23 août 2019 15:06:32
Urbanlegend 55 4min 2.216s. 23 août 2019 15:06:32
Zet 55 4min 2.216s. 23 août 2019 15:06:32
532. Freezy 55 4min 2.350s. 23 août 2019 15:11:36
Ash 55 4min 2.350s. 23 août 2019 15:11:36
Silv 55 4min 2.350s. 23 août 2019 15:11:36
535. Suzumu 55 4min 2.416s. 23 août 2019 15:08:53
Boohne 55 4min 2.416s. 23 août 2019 15:08:53
TgFreak 55 4min 2.416s. 23 août 2019 15:08:53
538. xInfernoThie 55 4min 2.433s. 23 août 2019 14:54:32
damokles2 55 4min 2.433s. 23 août 2019 14:54:32
alka 55 4min 2.433s. 23 août 2019 14:54:32
541. TBone 55 4min 2.516s. 23 août 2019 16:10:10
theBrogamer 55 4min 2.516s. 23 août 2019 16:10:10
LOCKS 55 4min 2.516s. 23 août 2019 16:10:10
544. Zynxx 55 4min 2.550s. 23 août 2019 21:11:06
DawsonUK 55 4min 2.550s. 23 août 2019 21:11:06
Fr3akmonst3r 55 4min 2.550s. 23 août 2019 21:11:06
547. Daller 55 4min 2.666s. 23 août 2019 15:07:37
brousni 55 4min 2.666s. 23 août 2019 15:07:37
Sysler 55 4min 2.666s. 23 août 2019 15:07:37
550. Reot 55 4min 2.716s. 23 août 2019 22:03:27
Eccha 55 4min 2.716s. 23 août 2019 22:03:27
Nik 55 4min 2.716s. 23 août 2019 22:03:27
553. Simbachris 55 4min 2.866s. 23 août 2019 15:08:38
Extra2x 55 4min 2.866s. 23 août 2019 15:08:38
Droplex 55 4min 2.866s. 23 août 2019 15:08:38
556. Chronzo 55 4min 2.900s. 24 août 2019 08:38:29
Raging 55 4min 2.900s. 24 août 2019 08:38:29
Zea1ot 55 4min 2.900s. 24 août 2019 08:38:29
559. Kräutereule 55 4min 3.050s. 23 août 2019 15:06:04
Eisgnom 55 4min 3.050s. 23 août 2019 15:06:04
DemonHunter 55 4min 3.050s. 23 août 2019 15:06:04
562. Biohazard 55 4min 3.149s. 23 août 2019 15:15:50
Halix 55 4min 3.149s. 23 août 2019 15:15:50
CrazyMage 55 4min 3.149s. 23 août 2019 15:15:50
565. BobKelsow 55 4min 3.200s. 23 août 2019 15:06:13
Nightmare 55 4min 3.200s. 23 août 2019 15:06:13
Neco 55 4min 3.200s. 23 août 2019 15:06:13
568. eythor 55 4min 3.466s. 23 août 2019 15:07:51
MrDemolition 55 4min 3.466s. 23 août 2019 15:07:51
Hazamero 55 4min 3.466s. 23 août 2019 15:07:51
571. dside 55 4min 3.549s. 23 août 2019 15:07:07
Hizzi 55 4min 3.549s. 23 août 2019 15:07:07
MatthVr 55 4min 3.549s. 23 août 2019 15:07:07
574. BF0Killering 55 4min 3.766s. 24 août 2019 12:06:54
Pedthekid 55 4min 3.766s. 24 août 2019 12:06:54
SrCoquito 55 4min 3.766s. 24 août 2019 12:06:54
577. Psajmon 55 4min 4.233s. 23 août 2019 15:47:45
Khazad 55 4min 4.233s. 23 août 2019 15:47:45
Icer 55 4min 4.233s. 23 août 2019 15:47:45
580. Xellias 55 4min 4.250s. 23 août 2019 15:24:31
findekeinen 55 4min 4.250s. 23 août 2019 15:24:31
tasy 55 4min 4.250s. 23 août 2019 15:24:31
583. Orange 55 4min 4.350s. 23 août 2019 15:10:09
JT84 55 4min 4.350s. 23 août 2019 15:10:09
RyanB 55 4min 4.350s. 23 août 2019 15:10:09
586. Bushman 55 4min 4.400s. 23 août 2019 15:05:56
Fangel 55 4min 4.400s. 23 août 2019 15:05:56
ZenowiX 55 4min 4.400s. 23 août 2019 15:05:56
589. Xents 55 4min 4.416s. 23 août 2019 15:17:34
Atradis 55 4min 4.416s. 23 août 2019 15:17:34
Kroghelf 55 4min 4.416s. 23 août 2019 15:17:34
592. rapoler 55 4min 4.416s. 23 août 2019 16:26:20
Arkhamthor 55 4min 4.416s. 23 août 2019 16:26:20
Philipp 55 4min 4.416s. 23 août 2019 16:26:20
595. Darion 55 4min 4.466s. 23 août 2019 18:58:22
Indiego 55 4min 4.466s. 23 août 2019 18:58:22
Hatsch 55 4min 4.466s. 23 août 2019 18:58:22
598. Xiod 55 4min 4.533s. 23 août 2019 15:07:08
zQiuL 55 4min 4.533s. 23 août 2019 15:07:08
Knickz 55 4min 4.533s. 23 août 2019 15:07:08
601. FreakyGorab 55 4min 4.583s. 23 août 2019 15:10:21
Budok 55 4min 4.583s. 23 août 2019 15:10:21
Falrach 55 4min 4.583s. 23 août 2019 15:10:21
604. Cosient 55 4min 4.666s. 23 août 2019 15:13:17
Joni 55 4min 4.666s. 23 août 2019 15:13:17
Valour 55 4min 4.666s. 23 août 2019 15:13:17
607. Shogun 55 4min 4.866s. 23 août 2019 15:10:04
anDe 55 4min 4.866s. 23 août 2019 15:10:04
FonzeD 55 4min 4.866s. 23 août 2019 15:10:04
610. Syntex 55 4min 4.883s. 23 août 2019 15:07:10
Harlekin 55 4min 4.883s. 23 août 2019 15:07:10
Enderman 55 4min 4.883s. 23 août 2019 15:07:10
613. ЖораУбей 55 4min 4.900s. 23 août 2019 15:06:00
Мороженко 55 4min 4.900s. 23 août 2019 15:06:00
Ancient 55 4min 4.900s. 23 août 2019 15:06:00
616. Balu66 55 4min 4.933s. 23 août 2019 15:32:31
cruz 55 4min 4.933s. 23 août 2019 15:32:31
susiwurst 55 4min 4.933s. 23 août 2019 15:32:31
619. Addiddi 55 4min 5.000s. 23 août 2019 15:18:47
Nitelite 55 4min 5.000s. 23 août 2019 15:18:47
Midna 55 4min 5.000s. 23 août 2019 15:18:47
622. Doni 55 4min 5.033s. 23 août 2019 15:05:57
Arasham 55 4min 5.033s. 23 août 2019 15:05:57
Lyx 55 4min 5.033s. 23 août 2019 15:05:57
625. c00kie 55 4min 5.083s. 23 août 2019 15:49:43
muffe 55 4min 5.083s. 23 août 2019 15:49:43
Kumion 55 4min 5.083s. 23 août 2019 15:49:43
628. DiamondHaze 55 4min 5.100s. 23 août 2019 20:47:30
EvilBanger 55 4min 5.100s. 23 août 2019 20:47:30
Ierai 55 4min 5.100s. 23 août 2019 20:47:30
631. oms 55 4min 5.266s. 23 août 2019 15:06:32
Krippan 55 4min 5.266s. 23 août 2019 15:06:32
pyrD 55 4min 5.266s. 23 août 2019 15:06:32
634. Zarkia 55 4min 5.400s. 23 août 2019 15:06:48
Mccormick 55 4min 5.400s. 23 août 2019 15:06:48
Primus 55 4min 5.400s. 23 août 2019 15:06:48
637. Dragora 55 4min 5.416s. 21 août 2019 14:25:06
Pandafamily 55 4min 5.416s. 21 août 2019 14:25:06
Sakura 55 4min 5.416s. 21 août 2019 14:25:06
640. Poisonfury 55 4min 5.433s. 23 août 2019 18:45:43
blowhard 55 4min 5.433s. 23 août 2019 18:45:43
PsydelicNevy 55 4min 5.433s. 23 août 2019 18:45:43
643. Olehon 55 4min 5.666s. 23 août 2019 16:26:05
Wabashe 55 4min 5.666s. 23 août 2019 16:26:05
Alrik 55 4min 5.666s. 23 août 2019 16:26:05
646. Darkpanik 55 4min 5.766s. 23 août 2019 20:26:14
Marcel 55 4min 5.766s. 23 août 2019 20:26:14
Silent 55 4min 5.766s. 23 août 2019 20:26:14
649. Ichigo 55 4min 5.883s. 23 août 2019 15:06:15
Gauner 55 4min 5.883s. 23 août 2019 15:06:15
ToX4roS 55 4min 5.883s. 23 août 2019 15:06:15
652. pRidE 55 4min 5.916s. 23 août 2019 15:20:06
Fußmeister 55 4min 5.916s. 23 août 2019 15:20:06
Hemloc 55 4min 5.916s. 23 août 2019 15:20:06
655. OwnRubalo 55 4min 5.983s. 24 août 2019 11:35:09
Andrzej 55 4min 5.983s. 24 août 2019 11:35:09
SzymeX 55 4min 5.983s. 24 août 2019 11:35:09
658. Jurakon 55 4min 6.016s. 23 août 2019 15:07:33
Monk 55 4min 6.016s. 23 août 2019 15:07:33
juja 55 4min 6.016s. 23 août 2019 15:07:33
661. Facebraker 55 4min 6.033s. 23 août 2019 15:06:32
divaio 55 4min 6.033s. 23 août 2019 15:06:32
NickNack 55 4min 6.033s. 23 août 2019 15:06:32
664. nee 55 4min 6.099s. 23 août 2019 19:51:08
Befree 55 4min 6.099s. 23 août 2019 19:51:08
Caerbannog 55 4min 6.099s. 23 août 2019 19:51:08
667. DoomZday 55 4min 6.116s. 23 août 2019 15:06:20
RICO 55 4min 6.116s. 23 août 2019 15:06:20
Joeloui 55 4min 6.116s. 23 août 2019 15:06:20
670. Despobob 55 4min 6.116s. 23 août 2019 15:10:44
Klapp 55 4min 6.116s. 23 août 2019 15:10:44
Blade 55 4min 6.116s. 23 août 2019 15:10:44
673. Styxi 55 4min 6.216s. 23 août 2019 15:06:19
Xenerad 55 4min 6.216s. 23 août 2019 15:06:19
dennis98x 55 4min 6.216s. 23 août 2019 15:06:19
676. Styan 55 4min 6.233s. 23 août 2019 15:08:11
GlowGlow 55 4min 6.233s. 23 août 2019 15:08:11
Alpenso 55 4min 6.233s. 23 août 2019 15:08:11
679. Ciccio 55 4min 6.233s. 24 août 2019 00:56:21
julian 55 4min 6.233s. 24 août 2019 00:56:21
DerpinCooki3 55 4min 6.233s. 24 août 2019 00:56:21
682. eltonlito 55 4min 6.250s. 24 août 2019 12:01:54
Rezcc 55 4min 6.250s. 24 août 2019 12:01:54
Heisenberg 55 4min 6.250s. 24 août 2019 12:01:54
685. Hulter 55 4min 6.316s. 23 août 2019 15:06:04
Zamas 55 4min 6.316s. 23 août 2019 15:06:04
StorkN 55 4min 6.316s. 23 août 2019 15:06:04
688. SMOKE 55 4min 6.383s. 23 août 2019 15:05:47
Revan 55 4min 6.383s. 23 août 2019 15:05:47
Tekas 55 4min 6.383s. 23 août 2019 15:05:47
691. Peacefull 55 4min 6.400s. 23 août 2019 15:05:41
Frerisien 55 4min 6.400s. 23 août 2019 15:05:41
ZheKa 55 4min 6.400s. 23 août 2019 15:05:41
694. JaCkal 55 4min 6.416s. 23 août 2019 15:05:46
MegumiN 55 4min 6.416s. 23 août 2019 15:05:46
Simpli17 55 4min 6.416s. 23 août 2019 15:05:46
697. Miro 55 4min 6.483s. 23 août 2019 15:06:10
Kikooky 55 4min 6.483s. 23 août 2019 15:06:10
Irgendwas 55 4min 6.483s. 23 août 2019 15:06:10
700. Arrow 55 4min 6.516s. 23 août 2019 15:07:54
Zonekiller 55 4min 6.516s. 23 août 2019 15:07:54
Erytheis 55 4min 6.516s. 23 août 2019 15:07:54
703. Almighty 55 4min 6.533s. 23 août 2019 15:07:14
Laraclure 55 4min 6.533s. 23 août 2019 15:07:14
inseN 55 4min 6.533s. 23 août 2019 15:07:14
706. danny 55 4min 6.566s. 24 août 2019 07:27:33
JFR123 55 4min 6.566s. 24 août 2019 07:27:33
Łamech 55 4min 6.566s. 24 août 2019 07:27:33
709. Beli 55 4min 6.633s. 23 août 2019 15:06:06
BadAttitude 55 4min 6.633s. 23 août 2019 15:06:06
Scream 55 4min 6.633s. 23 août 2019 15:06:06
712. PetSlayer 55 4min 6.683s. 23 août 2019 15:11:07
Sinyester 55 4min 6.683s. 23 août 2019 15:11:07
War 55 4min 6.683s. 23 août 2019 15:11:07
715. ComP4cT 55 4min 6.900s. 23 août 2019 15:14:37
papios 55 4min 6.900s. 23 août 2019 15:14:37
Wǒshìnǐbàba 55 4min 6.900s. 23 août 2019 15:14:37
718. SHuZz 55 4min 6.933s. 23 août 2019 15:08:42
Elveon 55 4min 6.933s. 23 août 2019 15:08:42
payphn 55 4min 6.933s. 23 août 2019 15:08:42
721. IMAVS 55 4min 7.166s. 23 août 2019 15:15:13
Hanzi 55 4min 7.166s. 23 août 2019 15:15:13
Smada 55 4min 7.166s. 23 août 2019 15:15:13
724. thanosgeros 55 4min 7.333s. 23 août 2019 15:12:08
Niv 55 4min 7.333s. 23 août 2019 15:12:08
notSmithY 55 4min 7.333s. 23 août 2019 15:12:08
727. Kisamî 55 4min 7.466s. 24 août 2019 13:20:51
SimONline 55 4min 7.466s. 24 août 2019 13:20:51
LeONline 55 4min 7.466s. 24 août 2019 13:20:51
730. Againstlaw 55 4min 7.533s. 23 août 2019 15:05:32
Armin 55 4min 7.533s. 23 août 2019 15:05:32
Asca 55 4min 7.533s. 23 août 2019 15:05:32
733. RAKAROCK 55 4min 7.550s. 23 août 2019 15:06:15
bast82 55 4min 7.550s. 23 août 2019 15:06:15
twiinki 55 4min 7.550s. 23 août 2019 15:06:15
736. Rüpelflo 55 4min 7.583s. 23 août 2019 15:05:42
Razor 55 4min 7.583s. 23 août 2019 15:05:42
Overlord 55 4min 7.583s. 23 août 2019 15:05:42
739. Bouchač 55 4min 7.616s. 23 août 2019 15:15:07
Scorp 55 4min 7.616s. 23 août 2019 15:15:07
Dimacharka 55 4min 7.616s. 23 août 2019 15:15:07
742. Infected 55 4min 7.666s. 23 août 2019 16:18:19
Zuschlagwerk 55 4min 7.666s. 23 août 2019 16:18:19
Arrianah 55 4min 7.666s. 23 août 2019 16:18:19
745. olemann 55 4min 7.733s. 23 août 2019 15:06:00
Whizps 55 4min 7.733s. 23 août 2019 15:06:00
ozranes 55 4min 7.733s. 23 août 2019 15:06:00
748. Deadmau 55 4min 7.766s. 23 août 2019 15:23:19
Nordlicht 55 4min 7.766s. 23 août 2019 15:23:19
TimeBandit 55 4min 7.766s. 23 août 2019 15:23:19
751. Lekkomio 55 4min 7.783s. 24 août 2019 00:04:14
Eshou 55 4min 7.783s. 24 août 2019 00:04:14
Shykun 55 4min 7.783s. 24 août 2019 00:04:14
754. Soon 55 4min 7.950s. 23 août 2019 15:15:42
echowar 55 4min 7.950s. 23 août 2019 15:15:42
schleifi 55 4min 7.950s. 23 août 2019 15:15:42
757. Mampfred 55 4min 8.100s. 23 août 2019 15:06:18
Phillipp 55 4min 8.100s. 23 août 2019 15:06:18
DMI 55 4min 8.100s. 23 août 2019 15:06:18
760. svartlientre 55 4min 8.283s. 23 août 2019 15:16:43
egWyte 55 4min 8.283s. 23 août 2019 15:16:43
CbfStake 55 4min 8.283s. 23 août 2019 15:16:43
763. Mitello 55 4min 8.350s. 23 août 2019 15:06:18
Pedro 55 4min 8.350s. 23 août 2019 15:06:18
Chrisiii 55 4min 8.350s. 23 août 2019 15:06:18
766. Ferinna 55 4min 8.350s. 23 août 2019 15:08:30
Franco 55 4min 8.350s. 23 août 2019 15:08:30
Phoebus 55 4min 8.350s. 23 août 2019 15:08:30
769. Xypher 55 4min 8.399s. 23 août 2019 15:06:40
YEEEEEEEEEET 55 4min 8.399s. 23 août 2019 15:06:40
MaJix14 55 4min 8.399s. 23 août 2019 15:06:40
772. Hylly 55 4min 8.533s. 23 août 2019 16:31:59
Psyoz 55 4min 8.533s. 23 août 2019 16:31:59
Guerriax 55 4min 8.533s. 23 août 2019 16:31:59
775. gugma 55 4min 8.583s. 23 août 2019 17:52:08
Eaglefang 55 4min 8.583s. 23 août 2019 17:52:08
ChR15 55 4min 8.583s. 23 août 2019 17:52:08
778. hary42 55 4min 8.616s. 23 août 2019 15:07:53
Norad3 55 4min 8.616s. 23 août 2019 15:07:53
vincente 55 4min 8.616s. 23 août 2019 15:07:53
781. Ruzzo 55 4min 8.616s. 23 août 2019 18:00:12
Cirall 55 4min 8.616s. 23 août 2019 18:00:12
Lanzelot 55 4min 8.616s. 23 août 2019 18:00:12
784. Aaaarrggh 55 4min 8.783s. 24 août 2019 13:31:33
Angel 55 4min 8.783s. 24 août 2019 13:31:33
ProutOjus 55 4min 8.783s. 24 août 2019 13:31:33
787. MisterLucky 55 4min 8.866s. 23 août 2019 15:06:39
NQQB 55 4min 8.866s. 23 août 2019 15:06:39
Crank97 55 4min 8.866s. 23 août 2019 15:06:39
790. Tumppi 55 4min 8.916s. 23 août 2019 19:01:29
Aze 55 4min 8.916s. 23 août 2019 19:01:29
verigreippi 55 4min 8.916s. 23 août 2019 19:01:29
793. Tankafer 55 4min 9.050s. 23 août 2019 15:08:19
Kiryusu 55 4min 9.050s. 23 août 2019 15:08:19
Aero 55 4min 9.050s. 23 août 2019 15:08:19
796. FireSpirit19 55 4min 9.116s. 23 août 2019 18:11:31
Eldohir 55 4min 9.116s. 23 août 2019 18:11:31
Aaske 55 4min 9.116s. 23 août 2019 18:11:31
799. Vexorian 55 4min 9.166s. 23 août 2019 20:55:23
Nightglyuk 55 4min 9.166s. 23 août 2019 20:55:23
Alton 55 4min 9.166s. 23 août 2019 20:55:23
802. Walek 55 4min 9.200s. 23 août 2019 16:09:04
KovineDuona 55 4min 9.200s. 23 août 2019 16:09:04
steez 55 4min 9.200s. 23 août 2019 16:09:04
805. lecorse 55 4min 9.250s. 23 août 2019 15:31:58
Kallumdor 55 4min 9.250s. 23 août 2019 15:31:58
Mizt 55 4min 9.250s. 23 août 2019 15:31:58
808. Armantzen 55 4min 9.266s. 23 août 2019 16:59:30
SpaceBoy99 55 4min 9.266s. 23 août 2019 16:59:30
TinyWhaleMan 55 4min 9.266s. 23 août 2019 16:59:30
811. DarkL0rd 55 4min 9.316s. 23 août 2019 15:06:28
SwiftLegends 55 4min 9.316s. 23 août 2019 15:06:28
Shantien 55 4min 9.316s. 23 août 2019 15:06:28
814. Kinowa 55 4min 9.450s. 24 août 2019 01:23:08
Ase 55 4min 9.450s. 24 août 2019 01:23:08
Denchique 55 4min 9.450s. 24 août 2019 01:23:08
817. Slovi 55 4min 9.500s. 23 août 2019 15:05:39
Nero 55 4min 9.500s. 23 août 2019 15:05:39
Shadowboy 55 4min 9.500s. 23 août 2019 15:05:39
820. Ogi 55 4min 9.516s. 23 août 2019 15:06:06
Cyborg2150 55 4min 9.516s. 23 août 2019 15:06:06
GavGav 55 4min 9.516s. 23 août 2019 15:06:06
823. konnichiWA 55 4min 9.533s. 23 août 2019 15:07:03
Jenova 55 4min 9.533s. 23 août 2019 15:07:03
CORON3R 55 4min 9.533s. 23 août 2019 15:07:03
826. Magda 55 4min 9.650s. 23 août 2019 15:53:01
szczota 55 4min 9.650s. 23 août 2019 15:53:01
Nightwolf 55 4min 9.650s. 23 août 2019 15:53:01
829. InoRiZz 55 4min 9.700s. 23 août 2019 15:05:52
tamikaze 55 4min 9.700s. 23 août 2019 15:05:52
Xeno 55 4min 9.700s. 23 août 2019 15:05:52
832. cocolinq 55 4min 9.716s. 23 août 2019 17:20:10
Twakers 55 4min 9.716s. 23 août 2019 17:20:10
miniboys 55 4min 9.716s. 23 août 2019 17:20:10
835. ReinerZorn 55 4min 9.799s. 23 août 2019 15:06:41
TeufelNgF 55 4min 9.799s. 23 août 2019 15:06:41
Critkidd 55 4min 9.799s. 23 août 2019 15:06:41
838. Kuba 55 4min 9.816s. 23 août 2019 15:06:50
LaborRatte 55 4min 9.816s. 23 août 2019 15:06:50
DerStadtaffe 55 4min 9.816s. 23 août 2019 15:06:50
841. Chaos 55 4min 9.916s. 23 août 2019 15:08:07
Twinner 55 4min 9.916s. 23 août 2019 15:08:07
Engel 55 4min 9.916s. 23 août 2019 15:08:07
844. paT1337 55 4min 9.950s. 23 août 2019 15:13:38
HookBait 55 4min 9.950s. 23 août 2019 15:13:38
Maraudon 55 4min 9.950s. 23 août 2019 15:13:38
847. Agent 55 4min 9.966s. 23 août 2019 15:06:31
RyChan91 55 4min 9.966s. 23 août 2019 15:06:31
Ice 55 4min 9.966s. 23 août 2019 15:06:31
850. macikplayer 55 4min 9.983s. 23 août 2019 23:57:23
Sephiroth19 55 4min 9.983s. 23 août 2019 23:57:23
Brobert 55 4min 9.983s. 23 août 2019 23:57:23
853. Redze 55 4min 10.183s. 23 août 2019 15:06:01
Vilp 55 4min 10.183s. 23 août 2019 15:06:01
Alek 55 4min 10.183s. 23 août 2019 15:06:01
856. kassdal 55 4min 10.216s. 23 août 2019 15:07:15
TheGimp 55 4min 10.216s. 23 août 2019 15:07:15
Pandrom 55 4min 10.216s. 23 août 2019 15:07:15
859. Alfi0812 55 4min 10.316s. 23 août 2019 17:56:31
Resiak2 55 4min 10.316s. 23 août 2019 17:56:31
SchmuseMitze 55 4min 10.316s. 23 août 2019 17:56:31
862. RisingDead 55 4min 10.366s. 23 août 2019 15:06:33
marlan 55 4min 10.366s. 23 août 2019 15:06:33
TheTardGame 55 4min 10.366s. 23 août 2019 15:06:33
865. Vocah 55 4min 10.450s. 23 août 2019 17:19:10
Singhy 55 4min 10.450s. 23 août 2019 17:19:10
BLMSTRGTN 55 4min 10.450s. 23 août 2019 17:19:10
868. Maulwurf 55 4min 10.483s. 23 août 2019 15:09:29
Bardock 55 4min 10.483s. 23 août 2019 15:09:29
Bloodface 55 4min 10.483s. 23 août 2019 15:09:29
871. lyx 55 4min 10.500s. 23 août 2019 15:07:07
Phytons 55 4min 10.500s. 23 août 2019 15:07:07
JIMBEAM70 55 4min 10.500s. 23 août 2019 15:07:07
874. Bzeem 55 4min 10.533s. 24 août 2019 09:18:24
Flynx 55 4min 10.533s. 24 août 2019 09:18:24
ThePenguin 55 4min 10.533s. 24 août 2019 09:18:24
877. Fishi 55 4min 10.566s. 23 août 2019 16:59:49
cyaoeu 55 4min 10.566s. 23 août 2019 16:59:49
Nysan 55 4min 10.566s. 23 août 2019 16:59:49
880. Dennis 55 4min 10.650s. 23 août 2019 15:05:48
Terafurma 55 4min 10.650s. 23 août 2019 15:05:48
Wise 55 4min 10.650s. 23 août 2019 15:05:48
883. Polsti 55 4min 10.683s. 23 août 2019 15:05:40
Rucksackboy 55 4min 10.683s. 23 août 2019 15:05:40
ChuckGreene 55 4min 10.683s. 23 août 2019 15:05:40
886. aggelikhV 55 4min 10.749s. 23 août 2019 15:10:45
Razielxxx 55 4min 10.749s. 23 août 2019 15:10:45
GrumpyMonk 55 4min 10.749s. 23 août 2019 15:10:45
889. Chillyo 55 4min 10.816s. 23 août 2019 15:06:23
Slavezero 55 4min 10.816s. 23 août 2019 15:06:23
Wittels 55 4min 10.816s. 23 août 2019 15:06:23
892. Razzia 55 4min 10.900s. 23 août 2019 16:35:29
Zhayti 55 4min 10.900s. 23 août 2019 16:35:29
Filthcollins 55 4min 10.900s. 23 août 2019 16:35:29
895. Yef 55 4min 10.916s. 23 août 2019 15:06:13
Yef 55 4min 10.916s. 23 août 2019 15:06:13
SWRaider 55 4min 10.916s. 23 août 2019 15:06:13
898. TaooNFS 55 4min 10.933s. 23 août 2019 15:05:59
costyro 55 4min 10.933s. 23 août 2019 15:05:59
TaooT 55 4min 10.933s. 23 août 2019 15:05:59
901. Jonneg 55 4min 10.933s. 23 août 2019 15:07:53
Rask 55 4min 10.933s. 23 août 2019 15:07:53
SmolPener 55 4min 10.933s. 23 août 2019 15:07:53
904. SuperCold 55 4min 10.933s. 23 août 2019 15:27:21
LinKinG 55 4min 10.933s. 23 août 2019 15:27:21
SeMi 55 4min 10.933s. 23 août 2019 15:27:21
907. sucr 55 4min 11.033s. 23 août 2019 15:36:04
Br0ken0rder 55 4min 11.033s. 23 août 2019 15:36:04
Gazier85 55 4min 11.033s. 23 août 2019 15:36:04
910. Zuni 55 4min 11.200s. 23 août 2019 15:05:54
WarFix 55 4min 11.200s. 23 août 2019 15:05:54
lillrobin 55 4min 11.200s. 23 août 2019 15:05:54
913. PottoOstler 55 4min 11.233s. 23 août 2019 15:10:23
Obelix2000 55 4min 11.233s. 23 août 2019 15:10:23
Stranger 55 4min 11.233s. 23 août 2019 15:10:23
916. Karabarak 55 4min 11.250s. 23 août 2019 16:58:19
PsyMaza 55 4min 11.250s. 23 août 2019 16:58:19
Azebar 55 4min 11.250s. 23 août 2019 16:58:19
919. Coolhart 55 4min 11.266s. 23 août 2019 19:23:59
Koektrommel 55 4min 11.266s. 23 août 2019 19:23:59
sandyia 55 4min 11.266s. 23 août 2019 19:23:59
922. Mordock 55 4min 11.299s. 23 août 2019 18:49:20
zockerboy64 55 4min 11.299s. 23 août 2019 18:49:20
Tpommes 55 4min 11.299s. 23 août 2019 18:49:20
925. jhonlennon 55 4min 11.416s. 23 août 2019 15:06:05
Puckjaeger13 55 4min 11.416s. 23 août 2019 15:06:05
Klabauterman 55 4min 11.416s. 23 août 2019 15:06:05
928. TdcArclight 55 4min 11.466s. 23 août 2019 18:25:15
Stealth 55 4min 11.466s. 23 août 2019 18:25:15
MaxBabo 55 4min 11.466s. 23 août 2019 18:25:15
931. Chiqsaw 55 4min 11.483s. 23 août 2019 15:06:03
Tander 55 4min 11.483s. 23 août 2019 15:06:03
Scherry 55 4min 11.483s. 23 août 2019 15:06:03
934. Mikronas 55 4min 11.483s. 23 août 2019 16:41:22
Corpse 55 4min 11.483s. 23 août 2019 16:41:22
Nellyssa 55 4min 11.483s. 23 août 2019 16:41:22
937. Balthazar 55 4min 11.533s. 23 août 2019 15:07:26
Aerynn 55 4min 11.533s. 23 août 2019 15:07:26
schmude 55 4min 11.533s. 23 août 2019 15:07:26
940. Romanshi 55 4min 11.600s. 23 août 2019 15:08:10
The41st 55 4min 11.600s. 23 août 2019 15:08:10
forevich 55 4min 11.600s. 23 août 2019 15:08:10
943. MooNN 55 4min 11.900s. 23 août 2019 15:05:54
Toby 55 4min 11.900s. 23 août 2019 15:05:54
Bachir 55 4min 11.900s. 23 août 2019 15:05:54
946. G4rth 55 4min 11.933s. 23 août 2019 15:05:43
IBOXM 55 4min 11.933s. 23 août 2019 15:05:43
MAFFIA 55 4min 11.933s. 23 août 2019 15:05:43
949. Basszus 55 4min 12.033s. 23 août 2019 17:24:02
Aggressor 55 4min 12.033s. 23 août 2019 17:24:02
Vildgerkilla 55 4min 12.033s. 23 août 2019 17:24:02
952. Patrik 55 4min 12.166s. 23 août 2019 15:08:16
Karlak 55 4min 12.166s. 23 août 2019 15:08:16
Zion 55 4min 12.166s. 23 août 2019 15:08:16
955. Tribun 55 4min 12.299s. 23 août 2019 15:07:32
HayyaM 55 4min 12.299s. 23 août 2019 15:07:32
Marangie 55 4min 12.299s. 23 août 2019 15:07:32
958. Xantom 55 4min 12.366s. 23 août 2019 15:44:14
salkîn 55 4min 12.366s. 23 août 2019 15:44:14
kasper 55 4min 12.366s. 23 août 2019 15:44:14
961. Silver 55 4min 12.383s. 23 août 2019 15:07:21
Nodus 55 4min 12.383s. 23 août 2019 15:07:21
Gattz 55 4min 12.383s. 23 août 2019 15:07:21
964. Allen 55 4min 12.383s. 23 août 2019 18:09:48
alex 55 4min 12.383s. 23 août 2019 18:09:48
Yenaur 55 4min 12.383s. 23 août 2019 18:09:48
967. Xjang 55 4min 12.433s. 23 août 2019 15:05:58
Notemneiher 55 4min 12.433s. 23 août 2019 15:05:58
SERAPHIN 55 4min 12.433s. 23 août 2019 15:05:58
970. Iliauben 55 4min 12.650s. 23 août 2019 18:36:40
Riddig 55 4min 12.650s. 23 août 2019 18:36:40
DrSike 55 4min 12.650s. 23 août 2019 18:36:40
973. Gamerblackou 55 4min 12.750s. 23 août 2019 21:20:55
Reigi 55 4min 12.750s. 23 août 2019 21:20:55
Melimelo 55 4min 12.750s. 23 août 2019 21:20:55
976. tynad 55 4min 12.883s. 23 août 2019 15:10:46
977. Letsdoit 55 4min 12.900s. 23 août 2019 15:06:03
Qii 55 4min 12.900s. 23 août 2019 15:06:03
MystikCat 55 4min 12.900s. 23 août 2019 15:06:03
980. Zensaki 55 4min 13.000s. 23 août 2019 15:05:43
Ackwel 55 4min 13.000s. 23 août 2019 15:05:43
Daylan 55 4min 13.000s. 23 août 2019 15:05:43
983. DeathAvenger 55 4min 13.066s. 23 août 2019 15:06:05
AirGun 55 4min 13.066s. 23 août 2019 15:06:05
Ordan 55 4min 13.066s. 23 août 2019 15:06:05
986. Ashenfrost 55 4min 13.083s. 23 août 2019 18:55:23
larry 55 4min 13.083s. 23 août 2019 18:55:23
Spuno 55 4min 13.083s. 23 août 2019 18:55:23
989. Grickey 55 4min 13.100s. 23 août 2019 16:12:58
Soleil 55 4min 13.100s. 23 août 2019 16:12:58
Loffan 55 4min 13.100s. 23 août 2019 16:12:58
992. MoC 55 4min 13.100s. 24 août 2019 15:08:07
MayoHSkill 55 4min 13.100s. 24 août 2019 15:08:07
BloodyNeko 55 4min 13.100s. 24 août 2019 15:08:07
995. Pontus 55 4min 13.216s. 23 août 2019 15:06:49
Defcom 55 4min 13.216s. 23 août 2019 15:06:49
Smajland 55 4min 13.216s. 23 août 2019 15:06:49
998. Beater 55 4min 13.216s. 23 août 2019 15:13:37
Varanti 55 4min 13.216s. 23 août 2019 15:13:37
Schludri 55 4min 13.216s. 23 août 2019 15:13:37
Affichage de 1150 sur 1 000 résultats